Regional Weather Roundup
Issued by NWS

Home | Current Version | Previous Version | Text Only | Print | Product List | Glossary On
Versions: 1 2 3 4 5 6 7 8 9 10 11 12 13 14 15 16 17 18 19 20 21 22 23 24 25 26 27 28 29 30 31 32 33 34 35 36 37 38 39 40 41 42 43 44 45 46 47 48 49 50
000
ASUS44 KFWD 230315
RWRTX
NORTH TEXAS HOURLY WEATHER ROUNDUP
NATIONAL WEATHER SERVICE FORT WORTH TX
1000 PM CDT TUE AUG 22 2017

NOTE: "FAIR" INDICATES FEW OR NO CLOUDS BELOW 12,000 FEET WITH NO
SIGNIFICANT WEATHER AND/OR OBSTRUCTIONS TO VISIBILITY.

TXZ118-119-230400-
DALLAS/FORT WORTH METROPLEX

CITY           SKY/WX    TMP DP  RH WIND       PRES   REMARKS
DFW AIRPORT    MOCLDY    89  68  49 SE7       29.97R HX  93
DALLAS LOVE    MOCLDY    90  68  48 SE9       29.98R HX  94
FTW MEACHAM    PTCLDY    91  70  49 SE8       29.98R HX  96
DAL-EXECUTIVE  CLEAR     87  68  52 SE7       29.98R HX  90
FTW-ALLIANCE   MOCLDY    88  69  53 SE7       29.99R HX  92
FTW-NAS-JRB    CLOUDY    92  67  43 SE10      29.99R HX  95
FTW-SPINKS     CLEAR     83  67  57 CALM      30.00R
ARLINGTON      CLEAR     87  70  56 E7        29.98R HX  92
GRAND PRAIRIE  CLEAR     87  64  46 E5        29.99R
ADDISON        CLEAR     90  68  48 SE8       29.99R HX  93
MESQUITE         N/A     81  73  76 CALM      29.99R
LANCASTER      CLEAR     85  66  54 SE3       29.99R
$$

TXZ091>094-102>105-117-120-121-131>134-230400-
NORTH CENTRAL TEXAS

CITY           SKY/WX    TMP DP  RH WIND       PRES   REMARKS
SHRMAN/DENISON CLOUDY    82  73  75 E5        30.02R
GAINESVILLE    CLOUDY    83  73  72 CALM      30.03R
BOWIE          CLOUDY    82  73  72 CALM      30.02R
BRIDGEPORT     CLOUDY    82  73  75 CALM      30.02R
DECATUR        CLOUDY    83  73  69 CALM        N/A
DENTON         MOCLDY    87  70  56 SE7       29.99R HX  92
MCKINNEY       PTCLDY    82  76  81 E3        29.99R
BONHAM         PTCLDY    81  73  78 CALM      30.01R
GREENVILLE     CLEAR     82  73  74 CALM      30.00R
ROCKWALL       CLEAR     83  72  67 SE5       30.00R
TERRELL        CLEAR     84  70  62 E5        29.99R
WAXAHACHIE     CLEAR     84  69  60 CALM      30.00R
CLEBURNE       CLEAR     86  68  54 SE5       30.00R
GRANBURY       CLEAR     85  67  55 CALM      30.00R
$$

TXZ083>090-098>101-113>116-127>130-139>142-154-155-230400-
WESTERN NORTH TEXAS

CITY           SKY/WX    TMP DP  RH WIND       PRES   REMARKS
WICHITA FALLS  CLOUDY    77  70  79 NW16      30.04R
WF-KICKAPOO    CLOUDY    78  71  79 NW6       30.06R
VERNON         CLOUDY    74  69  82 NE5       30.10R
ABILENE        CLOUDY    79  68  69 NW28G33   30.08R
ABILENE-DYESS  MOCLDY    78  69  73 N29G37    30.08R
GRAHAM         CLOUDY    82  70  67 NW9       30.02R
BRECKENRIDGE   CLOUDY    86  64  48 SE5       30.02R
CISCO          MOCLDY    82  63  51 SE5       30.05R
EASTLAND       MOCLDY    80  67  63 CALM      30.03R
RANGER         MOCLDY    78  67  66 CALM      30.04R
MINERAL WELLS  CLOUDY    83  68  60 SE5       29.99R
STEPHENVILLE   CLEAR     82  66  59 CALM      30.04R
COMANCHE       CLEAR     82  65  56 SE5       30.02R
BROWNWOOD      CLEAR     82  63  51 E6        30.02R
COLEMAN        PTCLDY    85  61  43 CALM      30.04R
$$

TXZ143>147-156>162-174-175-230400-
CENTRAL TEXAS

CITY           SKY/WX    TMP DP  RH WIND       PRES   REMARKS
WACO           CLEAR     85  70  60 SW6       29.96S
WACO-TSTC      CLOUDY    86  66  51 SE3       29.97R
WACO-MCGREGOR  CLEAR     86  66  51 S6        29.98R
HILLSBORO      CLEAR     87  69  54 E8        29.98R HX  91
CORSICANA      CLEAR     84  72  67 E7        29.98S
MEXIA          CLEAR     83  66  56 CALM      29.97S
HEARNE         CLEAR     85  66  53 SE6       29.98S
CAMERON        CLEAR     87  67  51 S7        29.97S
TEMPLE         CLEAR     85  64  49 SE3       29.98S
KILLEEN        CLEAR     85  64  48 SE6       29.99R
KILLEEN-SKYLRK CLEAR     86  65  49 SE5       29.99S
FORT HOOD      CLEAR     87  63  45 SE5       29.96S
HAMILTON       CLEAR     82  65  56 S5        30.02R
LAMPASAS       CLEAR     82  67  58 CALM      30.00S
$$

TXZ095>097-106>112-122>126-135>138-148>153-164>167-230400-
EAST TEXAS

CITY           SKY/WX    TMP DP  RH WIND       PRES   REMARKS
PARIS          CLEAR     82  75  79 SE3       30.01R
SULPHUR SPRNGS CLEAR     84  73  68 CALM      30.02R HX  90
MOUNT PLEASANT CLEAR     80  77  91 CALM      30.00R
GILMER         CLEAR     80  76  86 CALM      29.99R
MINEOLA        CLEAR     77  75  94 NE3       29.99R
TYLER          CLEAR     81  74  79 SE3       29.98R
LONGVIEW       CLEAR     82  75  79 CALM      29.97R
MARSHALL         N/A     76  72  89 CALM      30.00R
ATHENS         CLEAR     79  72  78 CALM      29.97R
PALESTINE      CLEAR     83  71  65 E3        29.98F
JACKSONVILLE   CLEAR     81  70  68 CALM      30.01F
HENDERSON      CLEAR     80  73  81 SE3       30.00R
CENTER         CLEAR     82  79  90 CALM      29.99F HX  92
NACOGDOCHES    CLEAR     81  73  76 SE3       29.99S
LUFKIN         CLEAR     80  73  79 SE5       29.98S
$$

SUPPLEMENTAL OBSERVATIONS (NWS FORT WORTH AREA)

CITY           SKY/WX    TMP DP  RH WIND       PRES   REMARKS
DENISON DAM      N/A     84  70  61 E2          N/A
CADDO GRASSLND   N/A     81  73  78 CALM        N/A
PAT MAYSE LAKE   N/A     84  77  79 SE6         N/A  HX  94
GREENVILLE       N/A     82  73  74 CALM        N/A
CEDAR HILL       N/A     86  66  51 SE5         N/A
LBJ GRASSLAND    N/A     84  72  65 N1          N/A
POSSUM KINGDOM   N/A     84  66  54 SE1         N/A
GRANBURY         N/A     84  66  54 SE1         N/A
COMANCHE         N/A     82  64  54 SE3         N/A
MCGREGOR         N/A     84  63  48 S5          N/A
TEMPLE           N/A     86  61  42 SE2         N/A
LAKE LIMESTONE   N/A     84  66  54 SE1         N/A
ATHENS           N/A     82  72  69 CALM        N/A
$$

SUPPLEMENTAL OBSERVATIONS (NWS NORMAN AREA)

CITY           SKY/WX    TMP DP  RH WIND       PRES   REMARKS
GOODLETT         N/A     70  66  87 NW5       30.11
ODELL            N/A     72  71  95 NW5       30.12
CROWELL          N/A     72  70  93 W2        30.10
KNOX CITY        N/A     73  68  83 N5        30.09
SEYMOUR        LGT RAIN  74  70  87 W3        30.08
MILLERS CREEK    N/A     72  68  88 N13         N/A
$$

SUPPLEMENTAL OBSERVATIONS (NWS SAN ANGELO AREA)

CITY           SKY/WX    TMP DP  RH WIND       PRES   REMARKS
WEINERT          N/A     75  69  79 NE10      30.08
HASKELL          N/A     75  65  72 N10       30.08
THROCKMORTON     N/A     76  72  86 NW13      30.08
STAMFORD         N/A     73  70  90 N10       30.10
CLYDE            N/A     78  68  72 NW14      30.10
HAMBY            N/A     77  68  73 N16G25      N/A
IVIE RESERVOIR   N/A     84  61  45 SE6         N/A
COLORADO BEND    N/A     82  61  47 SE3         N/A
$$

SUPPLEMENTAL OBSERVATIONS (NWS SHREVEPORT AREA)

CITY           SKY/WX    TMP DP  RH WIND       PRES   REMARKS
CLARKSVILLE      N/A     81  73  78 SW1         N/A
TEXARKANA        N/A     79  77  94 CALM        N/A
LINDEN           N/A     79  73  83 CALM        N/A
CADDO LAKE       N/A     75  73  94 CALM        N/A
GILMER           N/A     79  75  89 CALM        N/A
HENDERSON        N/A     81  75  83 CALM        N/A
LUFKIN           N/A     81  73  78 MISG        N/A
N SABINE NF      N/A     75  70  83 MISG        N/A
S SABINE NF      N/A     75  70  83 W1          N/A
$$

SUPPLEMENTAL OBSERVATIONS ARE A COLLECTION OF AUTOMATED INSTRUMENTS
THAT ARE MAINTAINED BY A VARIETY OF FEDERAL AND STATE AGENCIES.
CERTAIN ELEMENTS...SUCH AS HUMIDITY VALUES AND SUSTAINED WIND
SPEEDS...MAY BE APPROXIMATED.




USA.gov is the U.S. government's official web portal to all federal, state and local government web resources and services.